EHI
0 0 0 0 0 0 0 0 0 0 0 0 0 0 0 0 0 0 0 0 0 0 0 0 0 0 0 0 0 0 0 0 0 0 0 0 0 0
0 0 0 0 0 0 0 0 0 0 0 0 0 0 0 0 0 0 0 0 0 0 0 0 0 0 0 0 0 0 0 0 0 0 0 0 0 0
0 0 0 0 0 0 0 0 0 0 0 0 0 0 0 0 0 0 0 0 0 0 0 0 0 0 0 0 0 0 0 0 0 0 0 0 0 0
0 0 0 0 0 0 0 0 0 0 0 0 0 0 0 0 0 0 0 0 0 0 0 0 0 0 0 0 0 0 0 0 0 0 0 0 0 0
0 0 0 0 0 0 0 0 0 0 0 0 0 0 0 0 0 0 0 0 0 0 0 0 0 0 0 0 0 0 0 0 0 0 0 0 0 0
0 0 0 0 0 0 0 0 0 0 0 0 0 0 0 0 0 0 0 0 0 0 0 0 0 0 0 0 0 0 0 0 0 0 0 0 0 0
0 0 0 0 0 0 0 0 0 0 0 0 0 0 0 0 0 0 0 0 0 0 0 0 0 0 0 0 0 0 0 0 0 0 0 0 0 0
0 0 0 0 0 0 0 0 0 0 0 0 0 0 0 0 0 0 0 0 0 0 0 0 0 0 0 0 0 0 0 0 0 0 0 0 0 0
0 0 0 0 0 0 0 0 0 0 0 0 0 0 0 0 0 0 0 0 0 0 0 0 0 0 0 0 0 0 0 0 0 0 0 0 0 0
0 0 0 0 0 0 0 0 0 0 0 0 0 0 0 0 0 0 0 0 0 0 0 0 0 0 0 0 0 0 0 0 0 0 0 0 0 0
0 0 0 0 0 0 0 0 0 0 0 0 0 0 0 0 0 0 0 0 0 0 0 0 0 0 0 0 0 0 0 0 0 0 0 0 0 0
0 0 0 0 0 0 0 0 0 0 0 0 0 0 0 0 0 0 0 0 0 0 0 0 0 0 0 0 0 0 0 0 0 0 0 0 0 0
0 0 0 0 0 0 0 0 0 0 0 0 0 0 0 0 0 0 0 0 0 0 0 0 0 0 0 0 0 0 0 0 0 0 0 0 0 0
0 0 0 0 0 0 0 0 0 0 0 0 0 0 0 0 0 0 0 0 0 0 0 0 0 0 0 0 0 0 0 0 0 0 0 0 0 0
0 0 0 0 0 0 0 0 0 0 0 0 0 0 0 0 0 0 0 0 0 0 0 0 0 0 0 0 0 0 0 0 0 0 0 0 0 0
0 0 0 0 0 0 0 0 0 0 0 0 0 0 0 0 0 0 0 0 0 0 0 0 0 0 0 0 0 0 0 0 0 0 0 0 0 0
0 0 0 0 0 0 0 0 0 0 0 0 0 0 0 0 0 0 0 0 0 0 0 0 0 0 0 0 0 0 0 0 0 0 0 0 0 0
0 0 0 0 0 0 0 0 0 0 0 0 0 0 0 0 0 0 0 0 0 0 0 0 0 0 0 0 0 0 0 0 0 0 0 0 0 0
0 0 0 0 0 0 0 0 0 0 0 0 0 0 0 0 0 0 0 0 0 0 0 0 0 0 0 0 0 0 0 0 0 0 0 0 0 0
0 0 0 0 0 0 0 0 0 0 0 0 0 0 0 0 0 0 0 0 0 0 0 0 0 0 0 0 0 0 0 0 0 0 0 0 0 0
0 0 0 0 0 0 0 0 0 0 0 0 0 0 0 0 0 0 0 0 0 0 0 0 0 0 0 0 0 0 0 0 0 0 0 0 0 0
0 0 0 0 0 0 0 0 0 0 0 0 0 0 0 0 0 0 0 0 0 0 0 0 0 0 0 0 0 0 0 0 0 0 0 0 0 0
0 0 0 0 0 0 0 0 0 0 0 0 0 0 0 0 0 0 0 0 0 0 0 0 0 0 0 0 0 0 0 0 0 0 0 0 0 0
Wind_Speed
11 11 9 7 6 6 5 5 6 4 6 5 4 4 5 5 7 5 6 9 10 10 9 8 7 7 6 6 5 6 6 5 6 8 9 10 11 12
9 11 10 7 7 6 6 5 5 5 5 4 4 3 4 4 7 5 6 9 10 10 9 8 8 7 6 6 6 6 5 5 6 7 9 10 11 11
11 12 12 10 8 7 6 6 5 5 5 4 2 3 4 5 4 4 4 5 5 10 9 9 8 7 7 7 6 6 5 5 6 7 8 9 10 11
12 13 13 10 11 9 8 8 6 6 5 6 3 3 4 5 4 4 4 4 4 8 9 9 8 8 7 7 6 6 5 5 5 7 8 9 9 10
12 13 13 12 12 9 9 8 7 6 5 5 4 3 2 2 2 3 3 3 3 5 7 9 9 8 7 7 6 6 5 5 5 5 6 7 8 10
11 11 12 13 13 12 10 10 8 7 5 5 4 3 2 2 3 3 3 3 3 3 4 5 6 6 7 6 6 6 5 5 5 5 6 6 7 9
10 11 11 13 14 12 10 10 10 8 6 5 5 3 4 3 4 4 4 2 3 3 2 3 3 3 4 5 6 6 5 5 4 5 5 6 7 8
10 9 9 11 14 16 16 15 14 11 9 7 6 7 7 6 4 4 4 3 4 3 3 3 3 3 3 3 5 5 5 4 4 5 5 6 7 8
10 9 8 8 12 10 12 14 14 15 14 10 9 9 8 8 7 6 6 5 4 4 3 3 2 3 3 3 6 6 5 4 4 4 5 6 7 8
10 10 10 10 10 11 9 9 9 10 11 10 9 8 7 7 8 7 6 4 2 2 3 3 2 3 2 2 6 6 5 4 4 4 4 5 6 7
9 9 10 10 13 14 11 9 7 6 7 9 9 8 9 11 9 5 5 4 3 3 3 3 2 1 1 2 3 5 4 4 3 4 4 5 5 5
6 8 12 11 14 15 11 10 10 8 6 6 6 6 6 9 12 9 7 5 3 3 4 4 2 2 1 1 1 1 2 3 3 3 4 5 4 2
6 6 7 12 15 16 13 10 11 8 7 6 5 4 4 4 5 5 5 5 5 4 5 5 3 2 2 1 1 1 1 1 1 2 3 4 4 3
6 6 7 12 14 14 11 10 11 9 5 5 5 5 5 5 4 4 4 3 2 4 7 6 4 4 4 2 1 1 1 1 1 0 1 3 3 4
5 7 8 12 13 11 11 12 11 7 6 6 6 5 4 4 4 4 4 4 5 3 4 3 4 3 3 3 2 1 1 1 1 0 1 2 2 1
4 6 8 9 8 8 9 8 6 6 6 6 5 4 4 4 4 4 4 4 3 2 3 3 3 5 3 2 3 2 2 1 1 1 2 2 1 1
4 3 4 5 5 5 5 5 5 6 5 5 5 5 5 5 4 3 3 3 3 3 2 2 3 3 2 3 2 2 2 1 1 0 1 2 2 1
6 5 6 6 6 6 6 6 6 6 6 6 6 6 6 6 5 4 3 4 4 3 3 3 3 3 2 2 1 2 2 1 1 1 0 1 2 2
5 6 6 6 6 6 6 6 5 6 6 7 7 6 6 6 6 5 5 4 4 4 3 3 3 4 3 1 1 2 2 1 1 0 1 1 2 3
5 6 6 6 6 6 6 6 6 6 6 6 6 6 6 6 6 6 6 6 5 4 4 3 3 3 3 3 2 1 2 2 1 0 1 1 2 4
4 4 5 5 6 6 6 6 7 7 7 7 7 7 7 7 6 6 6 8 6 4 5 4 3 4 3 4 3 1 0 0 0 1 0 1 1 2
4 4 4 5 5 6 6 6 6 7 7 7 7 7 6 6 7 7 7 6 5 4 4 3 4 3 2 3 3 2 1 1 2 2 0 1 1 1
4 4 4 5 5 5 6 7 8 7 7 7 7 7 7 6 6 6 6 6 6 6 6 5 3 3 2 3 3 2 2 1 1 2 2 3 3 3
Wind_Direction
203 203 205 204 196 194 185 179 180 213 238 223 213 209 206 202 207 200 208 218 220 222 223 226 231 239 248 257 269 281 291 302 308 309 311 315 318 321
201 202 205 203 198 194 191 191 190 195 227 220 209 200 196 200 203 197 208 211 218 220 221 223 227 234 240 247 256 266 276 288 297 302 308 312 315 319
202 203 207 199 199 196 190 189 195 189 216 239 207 192 190 195 198 198 202 205 216 220 222 223 225 229 234 239 248 257 266 276 288 297 303 308 312 316
206 205 207 199 201 199 193 195 196 194 197 223 221 196 202 198 192 197 203 207 212 219 221 222 223 226 229 232 240 247 256 270 283 293 300 306 311 314
206 205 204 198 202 201 196 196 195 195 196 203 219 202 196 181 182 202 200 211 213 219 223 224 225 224 225 228 236 237 246 261 274 288 298 303 309 313
207 204 203 201 202 200 199 198 191 190 191 196 210 203 193 178 170 197 213 212 217 210 223 221 219 218 223 225 228 229 238 253 268 283 294 303 310 312
207 205 205 204 203 199 198 194 188 191 190 197 204 201 200 184 198 192 208 203 220 204 214 219 208 213 219 226 225 226 231 242 259 277 290 300 308 310
208 206 205 203 202 202 200 195 191 193 196 198 205 207 211 204 190 184 183 181 226 201 189 220 191 213 215 209 223 222 227 237 256 273 287 298 305 307
205 203 203 205 200 200 199 196 199 199 197 197 205 209 203 198 184 186 194 195 209 179 166 209 194 220 215 217 220 218 223 233 253 270 284 297 303 305
205 202 201 200 198 191 192 199 205 206 203 203 208 208 202 191 189 190 189 176 124 158 163 194 200 217 212 216 220 217 221 234 254 269 284 297 301 306
205 203 200 200 196 186 188 194 199 208 204 199 200 197 190 184 173 155 159 163 192 197 183 176 182 200 225 225 224 214 218 235 252 271 288 298 301 312
204 204 200 200 194 187 190 190 197 201 185 187 192 190 190 184 180 184 182 179 170 191 184 169 163 149 220 242 219 216 220 237 251 274 298 305 313 330
204 205 203 197 193 191 193 198 199 185 180 181 180 178 178 182 186 186 186 183 176 188 172 160 156 160 164 206 247 220 196 213 230 271 300 308 314 322
210 203 198 193 193 192 195 195 183 173 172 173 175 180 183 187 180 171 164 154 155 172 166 158 158 167 157 164 218 240 261 211 186 275 292 295 307 314
213 207 199 191 188 191 190 183 176 175 173 178 185 189 183 170 149 131 115 102 81 88 133 147 148 150 153 168 177 183 215 244 197 275 292 289 287 295
199 186 184 187 185 186 180 178 183 183 179 181 176 161 144 146 150 146 146 136 110 74 64 99 139 148 151 164 170 186 180 193 222 302 307 294 279 264
181 172 173 175 179 178 175 174 174 171 173 164 159 155 154 155 155 149 145 143 145 150 137 87 80 91 124 148 154 176 167 181 194 218 309 307 286 270
181 183 188 184 185 182 181 178 176 176 171 164 164 163 164 164 157 149 146 150 151 152 150 146 132 98 68 27 171 172 164 174 199 221 214 277 301 307
193 192 192 188 183 181 180 181 183 175 168 165 165 164 161 159 156 157 156 149 149 151 154 154 155 145 143 183 290 194 168 160 147 243 233 221 266 291
194 192 192 186 181 180 179 177 172 166 166 164 161 161 161 159 159 162 165 163 157 152 152 161 171 172 173 170 164 213 192 159 162 215 294 304 286 294
196 196 190 184 180 179 179 176 174 172 168 163 162 162 163 161 163 164 163 161 154 156 165 175 176 137 110 100 98 86 311 296 161 189 174 12 349 351
194 195 191 185 180 178 176 173 170 167 165 164 163 162 161 161 161 161 161 161 160 154 144 132 124 117 104 123 133 136 83 15 9 15 351 167 163 211
199 192 184 183 182 176 176 173 169 167 167 164 161 158 156 155 154 154 154 151 145 141 135 131 120 100 100 118 124 118 101 56 28 25 3 355 349 314